Hourly Weather Roundup
Issued by NWS Central Illinois

Home | Current Version | Previous Version | Text Only | Print | Product List | Glossary On
Versions: 1 2 3 4 5 6 7 8 9 10 11 12 13 14 15 16 17 18 19 20 21 22 23 24 25 26 27 28 29 30 31 32 33 34 35 36 37 38 39 40 41 42 43 44 45 46 47 48 49 50
000
NZUS43 KILX 160310
HWRILX

AREA WEATHER ROUNDUP
NATIONAL WEATHER SERVICE, LINCOLN IL
1000 PM CDT TUE APR 15 2014


CITY           SKY/WX    TMP DP  RH WIND       PRES   REMARKS
BLOOMINGTON    CLEAR     33  17  52 SE5       30.20S WCI  28
CHAMPAIGN      CLEAR     31  24  75 E8        30.22R WCI  23
DANVILLE       FAIR      30  25  79 CALM      30.21R
DECATUR        CLEAR     33  24  69 SE6       30.21R WCI  28
FLORA          CLEAR     33  30  86 CALM      30.24S
GALESBURG      CLEAR     33  24  69 E3        30.16S
JACKSONVILLE   CLEAR     36  23  58 SE6       30.19R WCI  31
LACON          CLEAR     30  20  67 CALM      30.18S
LAWRENCEVILLE  CLEAR     35  27  72 E3        30.25R
LITCHFIELD     CLEAR     35  24  65 CALM      30.21R
$$


CITY           SKY/WX    TMP DP  RH WIND       PRES   REMARKS
LINCOLN        CLEAR     33  25  71 CALM      30.21S
MACOMB         CLEAR     32  26  77 SE5       30.18S WCI  27
MATTOON        CLEAR     34  26  72 S3        30.22R
MT CARMEL AP   CLEAR     36  32  87 CALM      30.25R
OLNEY-NOBLE AP CLEAR     34  27  75 CALM      30.25R
PARIS          CLEAR     32  27  82 CALM      30.24R
PEORIA         CLEAR     35  19  52 CALM      30.18S
PONTIAC        CLEAR     34  27  75 SE6       30.20S WCI  29
RANTOUL        CLEAR     33  26  75 CALM      30.23R
ROBINSON       CLEAR     35  32  88 CALM      30.25S
SPRINGFIELD    CLEAR     34  23  64 SE5       30.20R WCI  30
TAYLORVILLE    CLEAR     34  27  75 SE3       30.21R
$$

...REGIONAL REPORTS...


CITY           SKY/WX    TMP DP  RH WIND       PRES   REMARKS
CHICAGO O`HARE CLEAR     31  19  61 S5        30.19R WCI  26
KANKAKEE       CLEAR     32  23  69 SE3       30.22S
MOLINE         CLEAR     29  18  63 CALM      30.16R
MOUNT VERNON   CLEAR     34  18  51 CALM      30.24R
PITTSFIELD     CLEAR     38  26  61 SE3       30.18R
QUINCY         PTCLDY    40  21  46 S6        30.15R
ROCKFORD       CLEAR     32  20  61 CALM      30.19R
$$


CITY           SKY/WX    TMP DP  RH WIND       PRES   REMARKS
BURLINGTON     CLEAR     36  23  59 SE6       30.14R WCI  31
CEDAR RAPIDS   CLEAR     29  18  63 E7        30.11R WCI  22
DES MOINES     PTCLDY    42  22  44 SE13      30.02F
KIRKSVILLE     MOCLDY    36  27  69 S8        30.12R WCI  30
OTTUMWA        CLEAR     34  22  61 SE9       30.09R WCI  27
ST LOUIS       PTCLDY    43  22  43 SE7       30.20R
$$


CITY           SKY/WX    TMP DP  RH WIND       PRES   REMARKS
TERRE HAUTE    CLEAR     32  26  78 CALM      30.24R
EVANSVILLE     CLEAR     37  27  67 CALM      30.26R
INDIANAPOLIS   CLEAR     32  16  51 CALM      30.23R
LAFAYETTE      CLEAR     28  19  69 CALM      30.24R
MADISON        CLEAR     29  17  61 CALM      30.16R
MILWAUKEE      PTCLDY    28  20  71 SE5       30.20R WCI  23
$$





USA.gov is the U.S. government's official web portal to all federal, state and local government web resources and services.